This is the latest recevied weather packets stored in our database for station/object G7GFU-13. If no packets are shown the sender has not sent any weather packets the latest 10 day(s).
| Time | Temp. | Humidity | Pressure | Rain* | Wind** | Luminosity | Snow |
|---|---|---|---|---|---|---|---|
| 1777456803 | 15.56° C | 48% | 1027.9 hPa | 0 mm | - | - | - |
| 1777455903 | 15° C | 50% | 1028.1 hPa | 0 mm | - | - | - |
| 1777452303 | 12.78° C | 59% | 1028.5 hPa | 0 mm | - | - | - |
| 1777451763 | 12.78° C | 59% | 1028.5 hPa | 0 mm | - | - | - |
| 1777445103 | 9.44° C | 68% | 1028.7 hPa | 0 mm | - | - | - |
| 1777438803 | 6.11° C | 76% | 1028.5 hPa | 0 mm | - | - | - |
| 1777436823 | 6.11° C | 76% | 1028.7 hPa | 0 mm | - | - | - |
| 1777429083 | 6.11° C | 77% | 1029.1 hPa | 0 mm | - | - | - |
| 1777427103 | 5.56° C | 77% | 1029.4 hPa | 0 mm | - | - | - |
| 1777421883 | 6.67° C | 74% | 1029.6 hPa | 0 mm | - | - | - |
| 1777420803 | 7.22° C | 74% | 1029.5 hPa | 0 mm | - | - | - |
| 1777419498 | 7.22° C | 75% | 1029.6 hPa | 0 mm | - | - | - |
| 1777415763 | 8.33° C | 74% | 1029.7 hPa | 0 mm | - | - | - |
| 1777413737 | 8.89° C | 72% | 1029.4 hPa | 0 mm | - | - | - |
| 1777411758 | 8.89° C | 69% | 1029.3 hPa | 0 mm | - | - | - |
| 1777406943 | 10.56° C | 67% | 1028.7 hPa | 0 mm | - | - | - |
| 1777404963 | 11.11° C | 63% | 1028.4 hPa | 0 mm | - | - | - |
| 1777404423 | 11.67° C | 62% | 1028.3 hPa | 0 mm | - | - | - |
| 1777402803 | 12.22° C | 58% | 1028.2 hPa | 0 mm | - | - | - |
| 1777400823 | 12.78° C | 55% | 1028.2 hPa | 0 mm | - | - | - |
| 1777399743 | 13.33° C | 54% | 1028.1 hPa | 0 mm | - | - | - |
| 1777397763 | 13.89° C | 56% | 1028 hPa | 0 mm | - | - | - |
| 1777395737 | 14.44° C | 56% | 1028 hPa | 0 mm | - | - | - |
| 1777395243 | 14.44° C | 57% | 1028 hPa | 0 mm | - | - | - |
| 1777392543 | 15° C | 57% | 1028.1 hPa | 0 mm | - | - | - |
* Rain latest hour (hover to see other rain measurements)
** Current wind speed in m/s (hover to see current wind gust speed)